Regional Weather Roundup
Issued by NWS

Home | Current Version | Previous Version | Text Only | Print | Product List | Glossary On
Versions: 1 2 3 4 5 6 7 8 9 10 11 12 13 14 15 16 17 18 19 20 21 22 23 24 25 26 27 28 29 30 31 32 33 34 35 36 37 38 39 40 41 42 43 44 45 46 47 48 49 50
000
ASUS44 KLIX 291410
RWRLA
LOUISIANA WEATHER ROUNDUP
NATIONAL WEATHER SERVICE NEW ORLEANS LA
800 AM CST THU JAN 29 2015

NOTE: "FAIR" INDICATES FEW OR NO CLOUDS BELOW 12,000 FEET WITH NO
      SIGNIFICANT WEATHER AND/OR OBSTRUCTIONS TO VISIBILITY.
      SKY/WX - SKY CONDITION AND SIGNIFICANT WEATHER.
      TMP - AIR TEMPERATURE.    DP   - DEWPOINT TEMPERATURE.
      RH  - RELATIVE HUMIDITY.  PRES - PRESSURE.
      HX  - HEAT INDEX.         WCI  - WIND CHILL INDEX.

*  THESE STATIONS ARE NOT NWS OR FAA STATIONS AND ARE NOT UNDER
   NWS QUALITY CONTROL.

LAZ040-048-061>063-065-066-069-291500-
SOUTHEAST LOUISIANA

CITY           SKY/WX    TMP DP  RH WIND       PRES   REMARKS
N.O. AUDUBON     N/A     55  50  83 MISG        N/A
N.O. INTL ARPT MOSUNNY   55  52  89 S9        30.22S
N.O. LAKEFRONT SUNNY     56  49  77 SE9       30.24R
N.O. DOWNTOWN* NOT AVBL
SLIDELL        SUNNY     48  45  89 CALM      30.23S
BATON ROUGE    MOSUNNY   48  45  89 CALM      30.24R FOG
BOOTHVILLE     MOSUNNY   55  50  83 SE6       30.26S
BELLE CHASSE   PTSUNNY   55  49  80 SE6       30.23S
BOGALUSA*        N/A     40  37  89 CALM      30.26R
GALLIANO*      SUNNY     50  50 100 MISG      30.24R
NEW ROADS*     CLOUDY    48  48  98 E3        30.23S FOG
GONZALES*      FAIR      49  49 100 CALM      30.23R FOG
HAMMOND*       SUNNY     45  41  87 N5        30.26R
HOUMA*         SUNNY     54  54 100 SE6       30.23R
PORT FOURCHON* SUNNY     64  59  82 SE9       30.27R

$$

LAZ041-044-053-054-291500-
SOUTHWEST LOUISIANA

CITY           SKY/WX    TMP DP  RH WIND       PRES   REMARKS
LAKE CHARLES   FOG       51  50  96 CALM      30.22R VSB 1/4
LAFAYETTE      PTSUNNY   53  52  96 CALM      30.23R
PATTERSON      SUNNY     57  52  82 CALM      30.23R
SALT POINT       N/A     57  54  89 SE6       30.21R
NEW IBERIA     PTSUNNY   51  49  92 N5        30.24R FOG
CHENAULT AIRPK FOG       52  52 100 CALM      30.21S VSB 1/4

$$

LAZ027-028-291500-
CENTRAL LOUISIANA

CITY           SKY/WX    TMP DP  RH WIND       PRES   REMARKS
FORT POLK      FOG       55  54  98 W5        30.22R VSB 1/4
ALEXANDRIA INT FOG       55  55 100 SW6       30.20R VSB 1/4
ALEXANDRIA     CLOUDY    57  55  93 SW3       30.21R FOG

$$

LAZ001-002-291500-
NORTHWEST LOUISIANA

CITY           SKY/WX    TMP DP  RH WIND       PRES   REMARKS
SHREVEPORT     MOCLDY    56  54  93 SW7       30.16R
BARKSDALE AFB  CLEAR     49  49 100 S6        30.16R FOG
DTN SHREVEPORT PTCLDY    55  52  89 SW8       30.16R

$$

LAZ014-016-291500-
NORTHEAST LOUISIANA

CITY           SKY/WX    TMP DP  RH WIND       PRES   REMARKS
MONROE         CLOUDY    53  51  93 SW10      30.17S
TALLULAH       CLOUDY    56  49  77 SW8       30.19R

$$




USA.gov is the U.S. government's official web portal to all federal, state and local government web resources and services.